Simultaneous Nadir Overpasses (SNOs) Predictions

Prediction of SNOs between METOP-B and TERRA Satellite Orbit:

Table of predicted SNOs for the next 14.0 days since TLE Epoch: 3/24/2018
Index Date (METOP-B) Time (METOP-B) Lat,Lon (METOP-B) SZA (METOP-B ) Date (TERRA) Time (TERRA) Lat,Lon (TERRA) SZA (TERRA ) Distance(km) Time Diff (sec)
1 03/26/2018 12:33:05 81.33, 39.43 81.70 03/26/2018 12:33:27 81.33, 39.57 81.72 2.39 22
2 03/26/2018 13:23:43 -81.34,-152.29 98.21 03/26/2018 13:22:53 -81.35,-152.45 98.25 2.69 50
3 03/29/2018 08:07:26 81.34, 106.00 80.65 03/29/2018 08:07:46 81.33, 106.02 80.65 0.67 20
4 03/29/2018 08:58:05 -81.34, -86.09 99.30 03/29/2018 08:57:12 -81.35, -85.98 99.31 2.00 53
5 04/01/2018 03:41:47 81.34, 172.55 79.60 04/01/2018 03:42:05 81.33, 172.49 79.60 0.97 18
6 04/01/2018 04:32:27 -81.34, -19.89 100.39 04/01/2018 04:31:32 -81.33, -19.88 100.42 0.75 55
7 04/03/2018 23:16:07 81.34,-120.91 78.57 04/03/2018 23:16:23 81.34,-121.02 78.56 1.83 16
8 04/04/2018 00:06:47 -81.34, 46.69 101.42 04/04/2018 00:05:50 -81.34, 46.62 101.46 1.17 57
9 04/06/2018 18:50:28 81.34, -54.38 77.54 04/06/2018 18:50:42 81.34, -54.52 77.53 2.29 14




NCC Satellite Simultaneous Nadir Overpasses (SNOs) Prediction Service
